Istanbul, Turkey

10:58 AM +03 on February 21, 2018 (GMT +0300)
Ataturk

Weather History for LTBA - January, 2013

Change the Weather History Date:

Friday, January 11, 2013

  Actual Average Record
Temperature  
Mean Temperature 45 °F -  
Max Temperature 49 °F 46 °F 60 °F (2016)
Min Temperature 41 °F 37 °F 30 °F (2008)
Degree Days  
Heating Degree Days 20    
Moisture  
Dew Point 35 °F    
Average Humidity 67    
Maximum Humidity 82    
Minimum Humidity 49    
Precipitation  
Precipitation 0.08 in - - ()
Sea Level Pressure  
Sea Level Pressure 29.94 in    
Wind  
Wind Speed 16 mph ()    
Max Wind Speed 24 mph    
Max Gust Speed 33 mph    
Visibility 5.7 miles    
Events Rain    
Averages and records for this station are not official NWS values.
T = Trace of Precipitation, MM = Missing Value Source: Averaged Metar Reports

Daily Weather History Graph

Daily Weather History Graph

Search for Another Location

Airport or City:

Trip Planner

Search our weather history database for the weather conditions in past years. The results will help you decide how hot, cold, wet, or windy it might be!

Date:

Astronomy

Jan. 11, 2013 Rise Set
Actual Time 7:28 AM EET 4:56 PM EET
Civil Twilight 6:58 AM EET 5:27 PM EET
Nautical Twilight 6:24 AM EET 6:01 PM EET
Astronomical Twilight 5:51 AM EET 6:34 PM EET
Moon 6:44 AM EET (1/11) 4:51 PM EET (1/11)
Length of Visible Light 10h 29m
Length of Day
9h 28m
Waning Crescent, 0% of the Moon is Illuminated
Jan 11
Waning Crescent
Jan 11
New
Jan 19
First Quarter
Jan 27
Full
Feb 3
Last Quarter

Hourly Weather History & Observations

Time (EET) Temp. Windchill Dew Point Humidity Pressure Visibility Wind Dir Wind Speed Gust Speed Precip Events Conditions
12:20 AM 41.0 °F 31.1 °F 28.4 °F 61% 30.04 in 6.2 mi South 23.0 mph - N/A   Mostly Cloudy
12:50 AM 41.0 °F 31.6 °F 28.4 °F 61% 30.04 in 6.2 mi South 20.7 mph - N/A   Mostly Cloudy
1:20 AM 41.0 °F 31.4 °F 28.4 °F 61% 30.04 in 6.2 mi SSW 21.9 mph - N/A   Mostly Cloudy
1:50 AM 42.8 °F 33.5 °F 30.2 °F 61% 30.04 in 6.2 mi SSW 23.0 mph - N/A   Mostly Cloudy
2:00 AM 42 °F - 29 °F 49% 30.04 in 6 mi SSW 23.0 mph - -   Partly Cloudy
2:20 AM 42.8 °F 33.8 °F 30.2 °F 61% 30.04 in 6.2 mi SSW 21.9 mph - N/A   Mostly Cloudy
2:50 AM 42.8 °F 33.8 °F 28.4 °F 57% 30.01 in 6.2 mi South 21.9 mph - N/A   Mostly Cloudy
3:20 AM 42.8 °F 33.8 °F 30.2 °F 61% 30.01 in 6.2 mi South 21.9 mph - N/A   Mostly Cloudy
3:50 AM 42.8 °F 33.8 °F 30.2 °F 61% 29.98 in 6.2 mi South 21.9 mph 33.4 mph N/A   Mostly Cloudy
4:20 AM 44.6 °F 35.7 °F 30.2 °F 57% 29.98 in 6.2 mi SSW 24.2 mph - N/A   Mostly Cloudy
4:50 AM 44.6 °F 35.9 °F 30.2 °F 57% 29.98 in 6.2 mi South 23.0 mph - N/A   Mostly Cloudy
5:20 AM 44.6 °F 36.6 °F 32.0 °F 61% 29.98 in 6.2 mi South 19.6 mph - N/A   Mostly Cloudy
5:50 AM 44.6 °F 37.2 °F 32.0 °F 61% 29.95 in 6.2 mi South 17.3 mph - N/A   Mostly Cloudy
6:20 AM 44.6 °F 35.9 °F 32.0 °F 61% 29.95 in 6.2 mi South 23.0 mph - N/A   Mostly Cloudy
6:50 AM 44.6 °F 36.6 °F 32.0 °F 61% 29.95 in 6.2 mi South 19.6 mph - N/A   Mostly Cloudy
7:20 AM 44.6 °F 36.4 °F 33.8 °F 66% 29.95 in 6.2 mi South 20.7 mph - N/A   Mostly Cloudy
7:50 AM 44.6 °F 35.9 °F 32.0 °F 61% 29.95 in 6.2 mi South 23.0 mph - N/A   Mostly Cloudy
8:20 AM 46.4 °F 39.0 °F 32.0 °F 57% 29.95 in 6.2 mi SSW 19.6 mph - N/A   Mostly Cloudy
8:50 AM 46.4 °F 38.3 °F 32.0 °F 57% 29.95 in 6.2 mi SSW 23.0 mph - N/A   Mostly Cloudy
9:20 AM 46.4 °F 38.7 °F 33.8 °F 62% 29.98 in 6.2 mi SSW 20.7 mph - N/A   Mostly Cloudy
9:50 AM 46.4 °F 38.7 °F 32.0 °F 57% 29.95 in 6.2 mi SSW 20.7 mph - N/A   Mostly Cloudy
10:20 AM 46.4 °F 39.5 °F 35.6 °F 66% 29.95 in 6.2 mi SSW 17.3 mph - N/A   Mostly Cloudy
10:50 AM 46.4 °F 39.5 °F 35.6 °F 66% 29.95 in 6.2 mi SSW 17.3 mph - N/A Rain Light Rain Showers
11:20 AM 46.4 °F 39.5 °F 35.6 °F 66% 29.95 in 6.2 mi SSW 17.3 mph - N/A Rain Light Rain Showers
11:50 AM 44.6 °F 37.4 °F 35.6 °F 71% 29.95 in 6.2 mi SSW 16.1 mph - N/A Rain Light Rain Showers
12:20 PM 46.4 °F 40.1 °F 35.6 °F 66% 29.95 in 6.2 mi SSW 15.0 mph - N/A Rain Light Rain Showers
12:50 PM 46.4 °F 40.4 °F 35.6 °F 66% 29.92 in 6.2 mi SSW 13.8 mph - N/A Rain Light Rain Showers
1:20 PM 46.4 °F 40.1 °F 35.6 °F 66% 29.92 in 6.2 mi South 15.0 mph - N/A Rain Light Rain Showers
1:50 PM 44.6 °F 38.1 °F 37.4 °F 76% 29.92 in 6.2 mi South 13.8 mph - N/A Rain Light Rain Showers
2:00 PM 45 °F - 36 °F 62% 29.93 in 6 mi South 13.8 mph - - Rain Light Rain Showers
2:20 PM 46.4 °F 39.8 °F 37.4 °F 71% 29.92 in 6.2 mi South 16.1 mph - N/A Rain Light Rain Showers
2:50 PM 46.4 °F 41.1 °F 37.4 °F 71% 29.89 in 6.2 mi South 11.5 mph - N/A   Mostly Cloudy
3:20 PM 48.2 °F - 37.4 °F 66% 29.89 in 6.2 mi South 9.2 mph - N/A   Mostly Cloudy
3:50 PM 48.2 °F - 37.4 °F 66% 29.89 in 6.2 mi South 10.4 mph - N/A   Mostly Cloudy
4:20 PM 48.2 °F - 37.4 °F 66% 29.89 in 6.2 mi South 6.9 mph - N/A   Mostly Cloudy
4:50 PM 48.2 °F - 37.4 °F 66% 29.89 in 6.2 mi South 6.9 mph - N/A   Mostly Cloudy
5:20 PM 48.2 °F - 39.2 °F 71% 29.89 in 6.2 mi South 5.8 mph - N/A   Mostly Cloudy
5:50 PM 48.2 °F - 39.2 °F 71% 29.89 in 6.2 mi SW 5.8 mph - N/A   Mostly Cloudy
6:20 PM 48.2 °F - 39.2 °F 71% 29.89 in 6.2 mi SW 4.6 mph - N/A   Mostly Cloudy
6:50 PM 48.2 °F - 41.0 °F 76% 29.89 in 5.0 mi SW 6.9 mph - N/A Rain Light Rain Showers
7:20 PM 48.2 °F - 41.0 °F 76% 29.89 in 5.0 mi SSW 9.2 mph - N/A Rain Light Rain Showers
7:50 PM 46.4 °F 41.9 °F 41.0 °F 81% 29.89 in 4.3 mi SSW 9.2 mph - N/A Rain Light Rain Showers
8:00 PM 47 °F - 42 °F 76% 29.91 in 4 mi SSW 9.2 mph - - Rain Light Rain Showers
8:20 PM 48.2 °F - 41.0 °F 76% 29.89 in 3.7 mi SSW 13.8 mph - N/A Rain Light Rain Showers
8:50 PM 46.4 °F 41.1 °F 41.0 °F 81% 29.89 in 3.7 mi SSW 11.5 mph - N/A Rain Light Rain Showers
9:20 PM 46.4 °F 41.5 °F 41.0 °F 81% 29.89 in 4.3 mi South 10.4 mph - N/A Rain Light Rain Showers
9:50 PM 48.2 °F - 41.0 °F 76% 29.89 in 4.3 mi South 10.4 mph - N/A Rain Light Rain Showers
10:20 PM 48.2 °F - 41.0 °F 76% 29.89 in 3.7 mi SSW 9.2 mph - N/A Rain Light Rain Showers
10:50 PM 48.2 °F - 41.0 °F 76% 29.89 in 3.7 mi SSW 8.1 mph - N/A Rain Light Rain Showers
11:20 PM 48.2 °F - 41.0 °F 76% 29.89 in 3.7 mi SSW 9.2 mph - N/A Rain Light Rain Showers
11:50 PM 48.2 °F - 42.8 °F 82% 29.89 in 3.7 mi SSW 10.4 mph - N/A Rain Light Rain Showers